SCP
1 0 0 1 1 1 1 0 0 0 0 0 0 0 0 0 0 0 0 0 0 0 0 0 0 0 0 0 0 0 0 0 0 0 0 0 0 0 0 0 0 0 0
1 0 0 0 0 1 1 1 0 0 0 0 0 0 0 0 0 0 1 1 0 0 0 0 0 0 0 0 0 0 0 0 0 0 0 0 0 0 0 0 0 0 0
0 0 0 0 0 0 1 1 1 0 0 0 0 0 0 0 0 0 1 1 1 0 0 0 0 0 0 0 0 0 0 0 0 0 0 0 0 0 0 0 0 0 0
0 0 0 0 0 0 1 1 1 0 0 0 0 0 0 0 0 1 1 1 0 0 0 0 0 0 0 0 0 0 0 0 0 0 0 0 0 0 0 0 0 0 0
0 0 0 0 0 0 0 1 1 1 0 0 0 0 0 0 0 1 1 0 0 0 0 0 0 0 0 0 0 0 0 0 0 0 0 0 0 0 0 0 0 0 0
0 0 0 0 0 0 0 1 1 1 1 0 0 0 0 0 0 1 1 0 0 0 0 0 0 0 0 0 0 0 0 0 0 0 0 0 0 0 0 0 0 0 0
0 0 0 0 0 0 0 0 0 1 0 0 0 0 0 0 0 0 1 0 0 0 0 0 0 0 0 0 0 0 0 0 0 0 0 0 0 0 0 0 0 0 0
0 0 0 0 0 0 0 0 0 0 0 0 1 0 0 0 0 0 0 0 0 0 0 0 0 0 0 0 0 0 0 0 0 0 0 0 0 0 0 0 0 0 0
0 0 0 0 0 0 0 0 0 0 0 1 0 0 0 0 0 1 1 0 0 0 0 0 0 0 0 0 0 0 0 0 0 0 0 0 0 0 0 0 0 0 0
0 0 0 0 0 0 0 0 0 0 0 0 0 1 0 0 0 1 1 0 0 0 0 0 0 0 0 0 0 0 0 0 0 0 0 0 0 0 0 0 0 0 0
0 0 0 0 0 0 0 0 0 0 0 0 0 1 0 0 0 1 1 1 1 0 0 0 0 0 0 0 0 0 0 0 0 0 0 0 0 0 0 0 0 0 0
0 0 0 0 0 0 0 0 0 0 0 0 0 1 1 1 0 1 1 1 1 0 0 0 0 0 0 0 0 0 0 0 0 0 0 0 0 0 0 0 -0 0 0
0 0 0 0 0 0 0 0 0 0 0 0 0 0 0 0 1 0 2 1 2 0 0 0 0 0 0 0 0 0 0 0 0 0 0 0 0 0 0 0 0 0 0
0 0 0 0 0 0 0 0 0 0 0 0 0 0 0 2 1 1 1 2 2 1 0 0 0 0 0 0 0 0 0 0 0 0 0 0 0 0 0 -0 -0 0 0
0 0 0 0 0 0 0 0 0 0 0 0 0 0 0 1 0 1 1 3 1 1 0 0 0 0 0 0 0 0 0 0 0 0 0 0 0 0 0 -0 -0 0 0
0 0 0 0 0 0 0 0 0 0 0 0 0 1 1 1 0 1 1 2 2 1 1 0 0 0 0 0 0 0 0 0 0 0 0 0 0 0 0 -0 -0 0 0
0 0 0 0 0 0 0 0 0 0 0 0 1 1 1 1 0 2 1 2 1 1 0 0 0 0 0 0 0 0 0 0 0 0 0 0 0 0 -0 -0 -0 0 0
0 0 0 0 0 0 0 0 0 0 0 0 0 0 1 1 0 0 1 1 1 1 0 0 0 0 0 0 0 0 0 0 0 0 0 0 0 0 -0 -0 -0 0 0
0 0 0 0 0 0 0 0 0 0 0 0 0 0 1 1 0 0 1 1 1 0 0 0 0 0 0 0 0 0 0 0 0 -0 0 0 0 0 -0 -0 0 0 0
0 0 0 0 0 0 0 0 0 0 0 -0 -0 0 1 1 0 0 1 1 1 0 0 0 0 0 0 0 0 0 0 0 0 0 0 0 0 0 -0 0 0 0 0
0 0 0 0 0 0 0 -0 0 -0 -0 -1 -0 0 0 1 0 0 0 1 0 0 0 0 0 0 0 0 0 0 0 0 0 0 0 0 0 0 0 0 0 0 0
0 0 0 0 0 0 -0 -0 0 -0 -0 -0 0 0 1 0 0 0 0 0 0 0 0 0 0 0 0 0 0 0 0 0 0 0 0 0 0 0 0 0 0 0 0
0 0 0 0 0 -0 -0 -0 -0 -0 -0 -0 0 0 0 0 0 0 0 0 0 0 0 0 0 0 0 0 0 0 0 0 0 0 0 0 0 0 0 0 0 0 0
0 0 0 0 0 0 0 0 -0 0 0 0 0 0 0 0 0 0 0 0 0 0 0 0 0 0 0 0 0 0 0 0 0 0 0 0 0 0 0 0 0 0 0
0 0 0 0 0 0 0 0 -0 0 0 0 0 0 0 0 0 0 0 0 0 0 0 0 0 0 0 0 0 0 0 0 0 0 0 0 0 0 0 0 0 0 0
0 0 0 0 0 -0 0 -0 -0 0 0 0 0 0 0 0 0 0 0 0 0 0 0 0 0 0 0 0 0 0 0 0 0 0 0 0 0 0 0 0 0 0 0
Wind_Speed_500mb
40 40 44 51 55 56 59 60 59 56 53 47 44 41 41 42 37 34 33 28 28 28 22 20 18 22 26 27 29 29 25 20 17 18 20 19 18 18 18 18 18 16 16
36 50 49 50 55 61 64 66 65 61 60 55 51 47 49 45 43 40 34 30 31 31 22 21 17 21 23 24 25 26 23 17 18 20 20 17 17 18 19 19 17 19 17
29 33 48 51 63 60 64 71 72 68 64 61 60 55 54 55 51 45 41 36 37 34 26 22 19 20 21 22 22 24 23 20 20 19 17 18 18 19 19 19 22 20 20
48 43 43 57 50 59 70 66 75 78 72 67 62 61 60 60 59 49 43 41 42 38 31 26 22 19 20 20 19 22 23 21 17 16 17 19 19 22 21 20 21 20 22
46 52 52 45 43 59 53 65 78 80 83 77 66 60 64 64 65 54 48 47 48 42 35 29 24 20 18 18 17 19 22 18 15 17 18 18 21 22 21 22 22 22 19
49 52 55 58 48 46 56 65 82 89 84 85 70 63 60 66 69 62 54 52 55 45 40 37 29 20 18 17 17 17 19 17 15 17 16 16 18 21 21 21 22 20 20
65 59 55 58 56 56 46 54 72 69 98 89 78 63 59 66 68 65 60 62 59 48 47 44 33 24 21 15 17 16 16 19 15 15 15 17 19 22 21 21 23 21 21
64 61 56 57 57 61 66 55 53 73 64 87 76 63 52 65 69 69 66 67 61 53 54 50 40 29 23 16 17 15 15 19 15 14 14 16 17 21 21 23 21 22 22
68 64 59 58 59 57 66 67 69 58 62 80 67 50 26 34 55 69 72 71 67 64 60 56 47 35 27 19 17 14 14 15 16 15 13 13 18 20 21 22 23 24 22
71 68 67 63 61 60 63 64 62 67 73 80 65 105 71 52 46 29 65 72 68 69 67 63 53 41 32 25 18 14 14 13 15 13 9 10 12 16 18 21 22 22 21
74 72 70 67 65 62 62 63 61 60 69 81 73 101 86 83 73 58 38 57 69 77 74 71 60 49 39 32 23 15 17 12 11 9 5 5 9 14 18 20 22 22 19
77 79 70 68 69 69 64 62 61 63 70 64 66 86 100 95 85 74 58 67 73 73 76 75 67 53 46 36 28 15 18 13 9 7 5 3 6 11 15 20 20 18 17
79 81 78 76 73 70 68 64 64 67 66 77 80 71 101 86 93 84 71 70 61 51 56 69 68 60 50 41 34 22 20 15 13 9 6 2 5 11 16 18 17 15 16
81 81 82 85 86 80 76 69 68 67 78 82 81 85 95 103 89 90 85 80 52 55 50 73 64 60 56 48 37 29 20 20 17 9 8 3 4 9 14 17 16 12 14
79 78 80 83 90 91 87 79 76 73 76 82 86 85 86 106 104 97 94 94 85 50 48 57 65 65 59 54 41 37 23 23 17 13 10 4 3 8 14 14 13 9 9
79 80 80 83 85 88 88 84 83 76 82 95 90 84 101 104 118 112 101 96 89 77 59 67 78 70 66 59 49 37 29 26 20 17 14 7 3 8 14 13 9 8 6
82 82 79 83 84 83 85 86 86 87 82 95 100 101 107 132 119 105 113 102 93 84 69 74 80 64 64 59 59 45 39 31 24 21 19 10 3 9 14 16 9 7 5
80 81 80 83 82 81 80 82 89 90 88 91 108 111 114 127 126 111 116 106 96 88 81 70 66 71 62 65 62 55 43 38 30 27 22 12 5 6 10 13 8 4 4
82 83 82 84 83 80 82 84 90 89 90 100 109 117 124 128 127 113 109 103 103 100 89 76 60 71 71 73 71 58 50 43 36 32 25 17 8 1 5 8 3 2 3
87 87 86 88 86 80 85 88 91 92 83 104 105 122 128 129 125 116 110 104 105 95 88 81 74 78 79 82 77 69 62 52 47 42 32 24 13 6 3 4 4 3 2
90 89 88 88 85 78 88 85 83 78 97 113 120 116 126 127 107 118 115 107 100 101 94 85 79 77 87 91 87 79 67 59 51 47 38 28 18 10 3 3 7 5 3
85 88 92 86 79 77 83 81 85 78 96 105 95 139 125 113 113 105 106 108 99 104 107 100 89 84 90 82 88 85 77 71 66 56 45 36 26 18 10 7 13 11 8
93 97 91 85 74 71 73 77 71 102 102 111 95 121 125 108 97 90 100 97 101 95 94 109 94 86 83 80 94 90 81 76 77 59 57 45 35 24 17 12 14 14 14
85 87 89 77 66 64 59 67 86 60 84 99 119 123 114 113 94 99 92 96 101 87 85 89 86 77 70 57 71 72 83 83 63 50 61 55 46 31 23 17 14 12 14
79 75 68 58 54 59 61 52 59 65 70 74 93 108 109 101 99 99 97 95 96 90 81 71 67 59 53 54 68 76 82 85 69 63 70 52 57 42 29 22 17 12 9
64 51 49 52 60 74 68 54 67 49 57 93 98 102 94 103 88 95 102 100 108 100 84 70 68 62 59 61 53 57 72 85 82 62 73 57 63 52 36 29 21 15 8
Wind_Direction_500mb
282 276 270 265 264 263 263 264 261 256 253 251 246 243 237 234 238 239 256 264 247 258 276 293 306 316 333 340 357 9 8 8 9 12 14 9 10 10 8 10 7 360 3
279 276 273 272 267 263 263 265 266 264 258 254 250 246 237 233 237 243 244 249 245 250 264 282 292 304 323 333 351 3 7 0 2 11 9 5 4 0 360 10 13 5 5
282 271 269 271 266 268 267 265 264 263 259 255 250 243 242 238 240 243 238 240 241 246 254 267 279 295 313 328 344 356 1 354 5 12 356 359 5 5 0 25 30 17 18
281 281 271 261 258 260 265 265 264 263 259 257 255 247 242 240 239 239 232 232 238 245 247 257 266 282 300 321 335 350 354 1 360 1 359 2 10 13 7 35 32 23 21
287 280 278 283 274 262 259 264 264 261 259 256 254 253 245 238 234 235 233 228 237 236 248 250 259 268 288 311 323 343 352 0 357 356 5 2 13 14 14 21 34 15 18
300 290 278 272 273 273 268 254 256 258 257 255 252 252 252 238 230 236 234 229 235 236 243 246 246 258 272 295 310 334 348 359 359 0 5 11 19 19 26 28 33 23 20
302 299 284 275 268 269 271 278 250 258 255 253 248 243 248 240 232 234 235 230 234 235 238 242 238 246 260 273 300 316 336 1 1 360 5 18 19 25 21 21 32 23 20
303 302 293 276 271 266 263 260 270 270 267 227 237 236 234 234 232 230 229 233 236 233 236 238 233 232 249 263 286 299 329 353 357 2 12 20 20 26 19 14 19 17 18
298 297 296 284 275 273 268 267 262 272 277 254 258 232 222 219 225 227 224 230 235 231 231 235 228 225 238 247 268 294 321 331 357 6 17 20 27 27 21 9 7 6 11
292 292 292 291 280 276 273 273 276 268 268 265 244 231 236 228 207 204 220 226 230 229 229 234 228 224 230 235 250 291 301 314 349 359 16 29 29 31 21 9 1 4 9
289 287 287 286 278 276 275 276 278 272 267 259 258 252 254 238 228 213 198 215 226 231 230 231 230 225 226 227 236 280 287 295 335 336 353 26 19 27 13 3 356 13 13
293 289 286 282 280 274 275 277 278 279 263 263 256 234 233 234 224 211 207 210 215 226 228 229 228 223 223 224 224 242 273 280 301 298 281 7 11 16 5 2 352 23 17
296 293 285 282 281 280 279 282 275 278 260 255 252 241 243 233 230 219 208 213 202 211 217 232 226 225 217 219 220 238 253 261 272 264 267 324 4 357 352 356 348 24 35
297 293 287 277 278 278 281 280 278 279 267 253 252 238 233 222 226 223 212 208 192 198 202 219 218 222 218 216 218 226 236 247 257 246 250 273 349 351 344 347 344 25 41
299 296 289 282 273 273 275 279 278 275 270 248 251 238 235 223 220 222 211 217 209 192 189 200 213 211 217 215 219 222 235 240 244 236 233 243 307 341 338 337 344 14 34
300 298 291 285 279 271 269 274 276 271 270 250 243 239 224 214 205 215 215 216 214 207 199 212 219 217 211 210 219 213 227 228 230 231 222 222 286 338 324 322 346 1 19
298 298 296 290 282 272 266 271 272 271 262 246 242 233 221 209 209 209 216 215 216 215 209 213 221 223 207 208 211 206 214 223 222 217 217 203 263 337 319 309 328 352 357
298 297 294 290 282 272 268 273 272 271 261 251 239 231 222 213 204 209 213 215 215 215 216 216 216 215 206 206 208 208 210 214 213 214 204 191 211 313 315 302 318 16 4
300 296 292 291 284 275 269 271 275 271 258 253 240 226 212 204 199 206 215 216 218 217 220 226 220 206 200 204 199 201 206 207 203 206 194 190 203 242 312 307 358 72 26
301 298 292 290 288 275 269 276 273 268 252 238 240 220 203 197 198 201 210 214 213 213 215 220 221 204 203 198 200 199 194 199 200 199 190 190 188 168 291 343 83 81 54
301 300 297 294 289 271 270 282 285 272 259 249 237 205 201 200 196 203 209 211 212 210 207 210 205 198 199 192 197 196 202 198 194 200 191 186 181 184 210 58 82 87 83
302 302 302 301 292 271 269 286 276 262 249 254 222 197 198 199 203 211 213 216 214 210 206 207 206 208 198 200 204 202 199 191 190 195 193 183 177 178 168 116 95 87 79
301 300 299 300 294 273 277 293 261 266 240 228 208 183 197 199 202 210 210 210 215 215 216 215 211 212 205 204 204 201 204 203 201 191 185 180 176 176 166 133 106 92 79
305 301 300 300 290 277 293 288 299 244 218 186 197 195 195 199 203 208 207 209 212 211 218 218 218 217 220 213 209 213 202 200 200 192 185 179 174 174 172 157 137 115 89
307 303 301 304 298 296 289 292 290 256 212 196 181 191 194 200 197 206 205 205 205 206 207 208 212 214 214 207 214 206 201 198 191 190 187 191 176 173 177 179 164 155 128
308 308 320 334 307 292 293 280 268 259 194 199 199 197 203 208 207 208 207 201 202 200 196 196 199 201 204 210 212 219 208 197 195 185 192 192 184 178 175 195 195 188 191
Wind_Speed_850mb
40 40 44 51 55 56 59 60 59 56 53 47 44 41 41 42 37 34 33 28 28 28 22 20 18 22 26 27 29 29 25 20 17 18 20 19 18 18 18 18 18 16 16
36 50 49 50 55 61 64 66 65 61 60 55 51 47 49 45 43 40 34 30 31 31 22 21 17 21 23 24 25 26 23 17 18 20 20 17 17 18 19 19 17 19 17
29 33 48 51 63 60 64 71 72 68 64 61 60 55 54 55 51 45 41 36 37 34 26 22 19 20 21 22 22 24 23 20 20 19 17 18 18 19 19 19 22 20 20
48 43 43 57 50 59 70 66 75 78 72 67 62 61 60 60 59 49 43 41 42 38 31 26 22 19 20 20 19 22 23 21 17 16 17 19 19 22 21 20 21 20 22
46 52 52 45 43 59 53 65 78 80 83 77 66 60 64 64 65 54 48 47 48 42 35 29 24 20 18 18 17 19 22 18 15 17 18 18 21 22 21 22 22 22 19
49 52 55 58 48 46 56 65 82 89 84 85 70 63 60 66 69 62 54 52 55 45 40 37 29 20 18 17 17 17 19 17 15 17 16 16 18 21 21 21 22 20 20
65 59 55 58 56 56 46 54 72 69 98 89 78 63 59 66 68 65 60 62 59 48 47 44 33 24 21 15 17 16 16 19 15 15 15 17 19 22 21 21 23 21 21
64 61 56 57 57 61 66 55 53 73 64 87 76 63 52 65 69 69 66 67 61 53 54 50 40 29 23 16 17 15 15 19 15 14 14 16 17 21 21 23 21 22 22
68 64 59 58 59 57 66 67 69 58 62 80 67 50 26 34 55 69 72 71 67 64 60 56 47 35 27 19 17 14 14 15 16 15 13 13 18 20 21 22 23 24 22
71 68 67 63 61 60 63 64 62 67 73 80 65 105 71 52 46 29 65 72 68 69 67 63 53 41 32 25 18 14 14 13 15 13 9 10 12 16 18 21 22 22 21
74 72 70 67 65 62 62 63 61 60 69 81 73 101 86 83 73 58 38 57 69 77 74 71 60 49 39 32 23 15 17 12 11 9 5 5 9 14 18 20 22 22 19
77 79 70 68 69 69 64 62 61 63 70 64 66 86 100 95 85 74 58 67 73 73 76 75 67 53 46 36 28 15 18 13 9 7 5 3 6 11 15 20 20 18 17
79 81 78 76 73 70 68 64 64 67 66 77 80 71 101 86 93 84 71 70 61 51 56 69 68 60 50 41 34 22 20 15 13 9 6 2 5 11 16 18 17 15 16
81 81 82 85 86 80 76 69 68 67 78 82 81 85 95 103 89 90 85 80 52 55 50 73 64 60 56 48 37 29 20 20 17 9 8 3 4 9 14 17 16 12 14
79 78 80 83 90 91 87 79 76 73 76 82 86 85 86 106 104 97 94 94 85 50 48 57 65 65 59 54 41 37 23 23 17 13 10 4 3 8 14 14 13 9 9
79 80 80 83 85 88 88 84 83 76 82 95 90 84 101 104 118 112 101 96 89 77 59 67 78 70 66 59 49 37 29 26 20 17 14 7 3 8 14 13 9 8 6
82 82 79 83 84 83 85 86 86 87 82 95 100 101 107 132 119 105 113 102 93 84 69 74 80 64 64 59 59 45 39 31 24 21 19 10 3 9 14 16 9 7 5
80 81 80 83 82 81 80 82 89 90 88 91 108 111 114 127 126 111 116 106 96 88 81 70 66 71 62 65 62 55 43 38 30 27 22 12 5 6 10 13 8 4 4
82 83 82 84 83 80 82 84 90 89 90 100 109 117 124 128 127 113 109 103 103 100 89 76 60 71 71 73 71 58 50 43 36 32 25 17 8 1 5 8 3 2 3
87 87 86 88 86 80 85 88 91 92 83 104 105 122 128 129 125 116 110 104 105 95 88 81 74 78 79 82 77 69 62 52 47 42 32 24 13 6 3 4 4 3 2
90 89 88 88 85 78 88 85 83 78 97 113 120 116 126 127 107 118 115 107 100 101 94 85 79 77 87 91 87 79 67 59 51 47 38 28 18 10 3 3 7 5 3
85 88 92 86 79 77 83 81 85 78 96 105 95 139 125 113 113 105 106 108 99 104 107 100 89 84 90 82 88 85 77 71 66 56 45 36 26 18 10 7 13 11 8
93 97 91 85 74 71 73 77 71 102 102 111 95 121 125 108 97 90 100 97 101 95 94 109 94 86 83 80 94 90 81 76 77 59 57 45 35 24 17 12 14 14 14
85 87 89 77 66 64 59 67 86 60 84 99 119 123 114 113 94 99 92 96 101 87 85 89 86 77 70 57 71 72 83 83 63 50 61 55 46 31 23 17 14 12 14
79 75 68 58 54 59 61 52 59 65 70 74 93 108 109 101 99 99 97 95 96 90 81 71 67 59 53 54 68 76 82 85 69 63 70 52 57 42 29 22 17 12 9
64 51 49 52 60 74 68 54 67 49 57 93 98 102 94 103 88 95 102 100 108 100 84 70 68 62 59 61 53 57 72 85 82 62 73 57 63 52 36 29 21 15 8
Wind_Direction_850mb
282 276 270 265 264 263 263 264 261 256 253 251 246 243 237 234 238 239 256 264 247 258 276 293 306 316 333 340 357 9 8 8 9 12 14 9 10 10 8 10 7 360 3
279 276 273 272 267 263 263 265 266 264 258 254 250 246 237 233 237 243 244 249 245 250 264 282 292 304 323 333 351 3 7 0 2 11 9 5 4 0 360 10 13 5 5
282 271 269 271 266 268 267 265 264 263 259 255 250 243 242 238 240 243 238 240 241 246 254 267 279 295 313 328 344 356 1 354 5 12 356 359 5 5 0 25 30 17 18
281 281 271 261 258 260 265 265 264 263 259 257 255 247 242 240 239 239 232 232 238 245 247 257 266 282 300 321 335 350 354 1 360 1 359 2 10 13 7 35 32 23 21
287 280 278 283 274 262 259 264 264 261 259 256 254 253 245 238 234 235 233 228 237 236 248 250 259 268 288 311 323 343 352 0 357 356 5 2 13 14 14 21 34 15 18
300 290 278 272 273 273 268 254 256 258 257 255 252 252 252 238 230 236 234 229 235 236 243 246 246 258 272 295 310 334 348 359 359 0 5 11 19 19 26 28 33 23 20
302 299 284 275 268 269 271 278 250 258 255 253 248 243 248 240 232 234 235 230 234 235 238 242 238 246 260 273 300 316 336 1 1 360 5 18 19 25 21 21 32 23 20
303 302 293 276 271 266 263 260 270 270 267 227 237 236 234 234 232 230 229 233 236 233 236 238 233 232 249 263 286 299 329 353 357 2 12 20 20 26 19 14 19 17 18
298 297 296 284 275 273 268 267 262 272 277 254 258 232 222 219 225 227 224 230 235 231 231 235 228 225 238 247 268 294 321 331 357 6 17 20 27 27 21 9 7 6 11
292 292 292 291 280 276 273 273 276 268 268 265 244 231 236 228 207 204 220 226 230 229 229 234 228 224 230 235 250 291 301 314 349 359 16 29 29 31 21 9 1 4 9
289 287 287 286 278 276 275 276 278 272 267 259 258 252 254 238 228 213 198 215 226 231 230 231 230 225 226 227 236 280 287 295 335 336 353 26 19 27 13 3 356 13 13
293 289 286 282 280 274 275 277 278 279 263 263 256 234 233 234 224 211 207 210 215 226 228 229 228 223 223 224 224 242 273 280 301 298 281 7 11 16 5 2 352 23 17
296 293 285 282 281 280 279 282 275 278 260 255 252 241 243 233 230 219 208 213 202 211 217 232 226 225 217 219 220 238 253 261 272 264 267 324 4 357 352 356 348 24 35
297 293 287 277 278 278 281 280 278 279 267 253 252 238 233 222 226 223 212 208 192 198 202 219 218 222 218 216 218 226 236 247 257 246 250 273 349 351 344 347 344 25 41
299 296 289 282 273 273 275 279 278 275 270 248 251 238 235 223 220 222 211 217 209 192 189 200 213 211 217 215 219 222 235 240 244 236 233 243 307 341 338 337 344 14 34
300 298 291 285 279 271 269 274 276 271 270 250 243 239 224 214 205 215 215 216 214 207 199 212 219 217 211 210 219 213 227 228 230 231 222 222 286 338 324 322 346 1 19
298 298 296 290 282 272 266 271 272 271 262 246 242 233 221 209 209 209 216 215 216 215 209 213 221 223 207 208 211 206 214 223 222 217 217 203 263 337 319 309 328 352 357
298 297 294 290 282 272 268 273 272 271 261 251 239 231 222 213 204 209 213 215 215 215 216 216 216 215 206 206 208 208 210 214 213 214 204 191 211 313 315 302 318 16 4
300 296 292 291 284 275 269 271 275 271 258 253 240 226 212 204 199 206 215 216 218 217 220 226 220 206 200 204 199 201 206 207 203 206 194 190 203 242 312 307 358 72 26
301 298 292 290 288 275 269 276 273 268 252 238 240 220 203 197 198 201 210 214 213 213 215 220 221 204 203 198 200 199 194 199 200 199 190 190 188 168 291 343 83 81 54
301 300 297 294 289 271 270 282 285 272 259 249 237 205 201 200 196 203 209 211 212 210 207 210 205 198 199 192 197 196 202 198 194 200 191 186 181 184 210 58 82 87 83
302 302 302 301 292 271 269 286 276 262 249 254 222 197 198 199 203 211 213 216 214 210 206 207 206 208 198 200 204 202 199 191 190 195 193 183 177 178 168 116 95 87 79
301 300 299 300 294 273 277 293 261 266 240 228 208 183 197 199 202 210 210 210 215 215 216 215 211 212 205 204 204 201 204 203 201 191 185 180 176 176 166 133 106 92 79
305 301 300 300 290 277 293 288 299 244 218 186 197 195 195 199 203 208 207 209 212 211 218 218 218 217 220 213 209 213 202 200 200 192 185 179 174 174 172 157 137 115 89
307 303 301 304 298 296 289 292 290 256 212 196 181 191 194 200 197 206 205 205 205 206 207 208 212 214 214 207 214 206 201 198 191 190 187 191 176 173 177 179 164 155 128
308 308 320 334 307 292 293 280 268 259 194 199 199 197 203 208 207 208 207 201 202 200 196 196 199 201 204 210 212 219 208 197 195 185 192 192 184 178 175 195 195 188 191